| time (UTC) | temp F | wind direction | speed MPH | gust MPH | rain 1hr in | rain 24hr in | rain mn in | humidity % | barometer mb |
| 20260506202626 | 69 | 235 | 4.0 | 7.0 | 0.00 | 0.00 | 0.00 | 65 | 1020.0 |
| 20260506202121 | 69 | 311 | 5.0 | 7.0 | 0.00 | 0.00 | 0.00 | 65 | 1020.0 |
| 20260506201619 | 68 | 269 | 4.0 | 6.0 | 0.00 | 0.00 | 0.00 | 67 | 1020.0 |
| 20260506201115 | 68 | 303 | 6.0 | 8.0 | 0.00 | 0.00 | 0.00 | 66 | 1020.4 |
| 20260506200612 | 69 | 202 | 2.0 | 8.0 | 0.00 | 0.00 | 0.00 | 66 | 1020.4 |
| 20260506200109 | 69 | 213 | 4.0 | 6.0 | 0.00 | 0.00 | 0.00 | 65 | 1020.4 |
| 20260506195605 | 69 | 205 | 3.0 | 7.0 | 0.00 | 0.00 | 0.00 | 66 | 1020.7 |
| 20260506195102 | 69 | 235 | 2.0 | 7.0 | 0.00 | 0.00 | 0.00 | 66 | 1020.4 |
| 20260506194559 | 70 | 262 | 4.0 | 6.0 | 0.00 | 0.00 | 0.00 | 61 | 1020.4 |
| 20260506194055 | 70 | 291 | 3.0 | 6.0 | 0.00 | 0.00 | 0.00 | 62 | 1020.4 |
| 20260506193553 | 70 | 248 | 4.0 | 8.0 | 0.00 | 0.00 | 0.00 | 63 | 1020.7 |
| 20260506193050 | 69 | 303 | 3.0 | 6.0 | 0.00 | 0.00 | 0.00 | 64 | 1020.7 |
| 20260506192547 | 68 | 340 | 2.0 | 7.0 | 0.00 | 0.00 | 0.00 | 66 | 1020.7 |
| 20260506192043 | 69 | 245 | 2.0 | 6.0 | 0.00 | 0.00 | 0.00 | 65 | 1020.7 |
| 20260506191540 | 68 | 219 | 4.0 | 8.0 | 0.00 | 0.00 | 0.00 | 64 | 1020.7 |
| 20260506191035 | 68 | 243 | 2.0 | 7.0 | 0.00 | 0.00 | 0.00 | 65 | 1020.7 |
| 20260506190533 | 68 | 294 | 2.0 | 6.0 | 0.00 | 0.00 | 0.00 | 66 | 1021.0 |
| 20260506190030 | 69 | 293 | 5.0 | 6.0 | 0.00 | 0.00 | 0.00 | 63 | 1020.7 |
| 20260506185527 | 69 | 293 | 2.0 | 4.0 | 0.00 | 0.00 | 0.00 | 63 | 1021.0 |
| 20260506185024 | 69 | 217 | 2.0 | 7.0 | 0.00 | 0.00 | 0.00 | 65 | 1021.0 |
| 20260506184521 | 69 | 10 | 4.0 | 6.0 | 0.00 | 0.00 | 0.00 | 63 | 1020.7 |
| 20260506184018 | 69 | 342 | 0.0 | 7.0 | 0.00 | 0.00 | 0.00 | 64 | 1020.7 |
| 20260506183514 | 69 | 328 | 2.0 | 4.0 | 0.00 | 0.00 | 0.00 | 64 | 1020.7 |
| 20260506183011 | 69 | 234 | 4.0 | 8.0 | 0.00 | 0.00 | 0.00 | 63 | 1021.0 |
| 20260506182508 | 69 | 155 | 2.0 | 6.0 | 0.00 | 0.00 | 0.00 | 63 | 1021.0 |
| 20260506182005 | 68 | 246 | 2.0 | 4.0 | 0.00 | 0.00 | 0.00 | 64 | 1020.7 |
| 20260506181503 | 68 | 224 | 3.0 | 4.0 | 0.00 | 0.00 | 0.00 | 64 | 1021.0 |
| 20260506181000 | 70 | 264 | 4.0 | 6.0 | 0.00 | 0.00 | 0.00 | 61 | 1021.0 |
| 20260506180456 | 70 | 162 | 2.0 | 4.0 | 0.00 | 0.00 | 0.00 | 63 | 1021.0 |
| 20260506175953 | 69 | 272 | 3.0 | 4.0 | 0.00 | 0.00 | 0.00 | 63 | 1021.0 |
| 20260506175450 | 69 | 308 | 2.0 | 4.0 | 0.00 | 0.00 | 0.00 | 63 | 1021.0 |
| 20260506174946 | 69 | 320 | 2.0 | 4.0 | 0.00 | 0.00 | 0.00 | 64 | 1021.0 |
| 20260506174444 | 68 | 50 | 0.0 | 4.0 | 0.00 | 0.00 | 0.00 | 65 | 1021.0 |
| 20260506173940 | 68 | 268 | 3.0 | 7.0 | 0.00 | 0.00 | 0.00 | 65 | 1021.0 |
| 20260506173438 | 69 | 164 | 3.0 | 4.0 | 0.00 | 0.00 | 0.00 | 65 | 1021.0 |
| 20260506172935 | 71 | 359 | 3.0 | 4.0 | 0.00 | 0.00 | 0.00 | 61 | 1021.0 |
| 20260506172432 | 71 | 331 | 0.0 | 2.0 | 0.00 | 0.00 | 0.00 | 61 | 1021.0 |
| 20260506171928 | 71 | 247 | 2.0 | 3.0 | 0.00 | 0.00 | 0.00 | 59 | 1020.7 |
| 20260506171426 | 68 | 354 | 1.0 | 2.0 | 0.00 | 0.00 | 0.00 | 63 | 1021.0 |
| 20260506170924 | 67 | 335 | 1.0 | 3.0 | 0.00 | 0.00 | 0.00 | 64 | 1021.0 |
| 20260506170420 | 68 | 337 | 0.0 | 2.0 | 0.00 | 0.00 | 0.00 | 65 | 1021.0 |
| 20260506165919 | 68 | 1 | 0.0 | 2.0 | 0.00 | 0.00 | 0.00 | 64 | 1021.0 |
| 20260506165417 | 68 | 312 | 0.0 | 2.0 | 0.00 | 0.00 | 0.00 | 64 | 1021.0 |
| 20260506164912 | 68 | 267 | 4.0 | 4.0 | 0.00 | 0.00 | 0.00 | 64 | 1020.7 |
| 20260506164409 | 68 | 271 | 1.0 | 3.0 | 0.00 | 0.00 | 0.00 | 65 | 1020.7 |
| 20260506163908 | 69 | 353 | 1.0 | 2.0 | 0.00 | 0.00 | 0.00 | 63 | 1020.7 |
| 20260506163402 | 69 | 140 | 2.0 | 3.0 | 0.00 | 0.00 | 0.00 | 64 | 1020.7 |
| 20260506162857 | 69 | 0 | 2.0 | 2.0 | 0.00 | 0.00 | 0.00 | 63 | 1020.7 |
| 20260506162355 | 69 | 40 | 0.0 | 2.0 | 0.00 | 0.00 | 0.00 | 64 | 1021.0 |
| 20260506161852 | 70 | 347 | 0.0 | 1.0 | 0.00 | 0.00 | 0.00 | 63 | 1021.0 |
| 20260506161349 | 68 | 348 | 1.0 | 2.0 | 0.00 | 0.00 | 0.00 | 64 | 1021.0 |
| 20260506160847 | 67 | 262 | 2.0 | 6.0 | 0.00 | 0.00 | 0.00 | 66 | 1020.7 |
| 20260506160344 | 67 | 342 | 1.0 | 3.0 | 0.00 | 0.00 | 0.00 | 67 | 1021.0 |
| 20260506155842 | 66 | 238 | 1.0 | 2.0 | 0.00 | 0.00 | 0.00 | 68 | 1021.0 |
| 20260506155338 | 65 | 38 | 1.0 | 1.0 | 0.00 | 0.00 | 0.00 | 71 | 1021.0 |
| 20260506153456 | 64 | 33 | 1.0 | 2.0 | 0.00 | 0.00 | 0.00 | 72 | 1021.0 |
| 20260506152954 | 64 | 334 | 0.0 | 2.0 | 0.00 | 0.00 | 0.00 | 72 | 1021.0 |
| 20260506152450 | 65 | 13 | 1.0 | 2.0 | 0.00 | 0.00 | 0.00 | 70 | 1021.0 |
| 20260506151949 | 64 | 67 | 2.0 | 4.0 | 0.00 | 0.00 | 0.00 | 73 | 1020.7 |
| 20260506151446 | 64 | 25 | 2.0 | 3.0 | 0.00 | 0.00 | 0.00 | 71 | 1021.0 |
| 20260506150943 | 63 | 30 | 1.0 | 2.0 | 0.00 | 0.00 | 0.00 | 73 | 1021.0 |
| 20260506150439 | 63 | 57 | 1.0 | 2.0 | 0.00 | 0.00 | 0.00 | 74 | 1020.7 |
| 20260506145936 | 64 | 351 | 1.0 | 3.0 | 0.00 | 0.00 | 0.00 | 72 | 1021.0 |
| 20260506145432 | 63 | 76 | 1.0 | 2.0 | 0.00 | 0.00 | 0.00 | 72 | 1021.0 |
| 20260506144930 | 62 | 48 | 2.0 | 4.0 | 0.00 | 0.00 | 0.00 | 74 | 1021.0 |
| 20260506144427 | 63 | 26 | 2.0 | 2.0 | 0.00 | 0.00 | 0.00 | 71 | 1021.0 |
| 20260506143925 | 62 | 1 | 1.0 | 3.0 | 0.00 | 0.00 | 0.00 | 73 | 1021.0 |
| 20260506143422 | 61 | 10 | 0.0 | 2.0 | 0.00 | 0.00 | 0.00 | 74 | 1021.0 |
| 20260506142920 | 62 | 8 | 1.0 | 3.0 | 0.00 | 0.00 | 0.00 | 73 | 1021.0 |
| 20260506142418 | 61 | 350 | 0.0 | 2.0 | 0.00 | 0.00 | 0.00 | 75 | 1020.7 |
| 20260506141916 | 61 | 0 | 0.0 | 4.0 | 0.00 | 0.00 | 0.00 | 75 | 1020.7 |
| 20260506141413 | 60 | 344 | 0.0 | 1.0 | 0.00 | 0.00 | 0.00 | 75 | 1020.7 |
| 20260506140911 | 60 | 5 | 1.0 | 3.0 | 0.00 | 0.00 | 0.00 | 75 | 1020.7 |
| 20260506140408 | 60 | 348 | 0.0 | 1.0 | 0.00 | 0.00 | 0.00 | 76 | 1020.7 |
| 20260506135905 | 60 | 8 | 1.0 | 2.0 | 0.00 | 0.00 | 0.00 | 76 | 1020.7 |
| 20260506135402 | 59 | 348 | 0.0 | 0.0 | 0.00 | 0.00 | 0.00 | 77 | 1020.7 |
| 20260506134858 | 59 | 356 | 1.0 | 2.0 | 0.00 | 0.00 | 0.00 | 77 | 1020.4 |
| 20260506134354 | 58 | 348 | 0.0 | 0.0 | 0.00 | 0.00 | 0.00 | 80 | 1020.7 |
| 20260506133851 | 57 | 343 | 0.0 | 0.0 | 0.00 | 0.00 | 0.00 | 83 | 1020.7 |
| 20260506133348 | 56 | 342 | 0.0 | 0.0 | 0.00 | 0.00 | 0.00 | 84 | 1020.4 |
| 20260506132844 | 55 | 340 | 0.0 | 0.0 | 0.00 | 0.00 | 0.00 | 86 | 1020.4 |
| 20260506132342 | 54 | 342 | 0.0 | 0.0 | 0.00 | 0.00 | 0.00 | 86 | 1020.4 |
| 20260506131840 | 54 | 340 | 0.0 | 0.0 | 0.00 | 0.00 | 0.00 | 87 | 1020.4 |
| 20260506131336 | 54 | 345 | 0.0 | 0.0 | 0.00 | 0.00 | 0.00 | 87 | 1020.4 |
| 20260506130833 | 54 | 338 | 0.0 | 0.0 | 0.00 | 0.00 | 0.00 | 87 | 1020.4 |
| 20260506130329 | 53 | 339 | 0.0 | 0.0 | 0.00 | 0.00 | 0.00 | 87 | 1020.4 |
| 20260506125827 | 53 | 343 | 0.0 | 0.0 | 0.00 | 0.00 | 0.00 | 87 | 1020.4 |
| 20260506125326 | 53 | 340 | 0.0 | 0.0 | 0.00 | 0.00 | 0.00 | 87 | 1020.4 |
| 20260506124824 | 53 | 343 | 0.0 | 0.0 | 0.00 | 0.00 | 0.00 | 87 | 1020.4 |
| 20260506124320 | 53 | 340 | 0.0 | 0.0 | 0.00 | 0.00 | 0.00 | 87 | 1020.0 |
| 20260506123818 | 53 | 341 | 0.0 | 0.0 | 0.00 | 0.00 | 0.00 | 86 | 1020.0 |
| 20260506123317 | 53 | 342 | 0.0 | 0.0 | 0.00 | 0.00 | 0.00 | 86 | 1020.0 |
| 20260506122813 | 54 | 339 | 0.0 | 0.0 | 0.00 | 0.00 | 0.00 | 87 | 1020.0 |
| 20260506122310 | 54 | 337 | 0.0 | 0.0 | 0.00 | 0.00 | 0.00 | 87 | 1020.0 |
| 20260506121808 | 54 | 338 | 0.0 | 0.0 | 0.00 | 0.00 | 0.00 | 87 | 1020.0 |
| 20260506121305 | 53 | 341 | 0.0 | 0.0 | 0.00 | 0.00 | 0.00 | 87 | 1020.0 |
| 20260506120802 | 53 | 342 | 0.0 | 0.0 | 0.00 | 0.00 | 0.00 | 88 | 1019.7 |
| 20260506120300 | 53 | 341 | 0.0 | 0.0 | 0.00 | 0.00 | 0.00 | 88 | 1020.0 |
| 20260506115757 | 53 | 340 | 0.0 | 0.0 | 0.00 | 0.00 | 0.00 | 88 | 1019.7 |
| 20260506115255 | 53 | 338 | 0.0 | 0.0 | 0.00 | 0.00 | 0.00 | 88 | 1019.7 |
| 20260506114753 | 53 | 338 | 0.0 | 0.0 | 0.00 | 0.00 | 0.00 | 88 | 1020.0 |
| 20260506114250 | 53 | 339 | 0.0 | 0.0 | 0.00 | 0.00 | 0.00 | 88 | 1019.7 |
| 20260506113749 | 53 | 338 | 0.0 | 0.0 | 0.00 | 0.00 | 0.00 | 88 | 1019.7 |
| 20260506113246 | 53 | 337 | 0.0 | 0.0 | 0.00 | 0.00 | 0.00 | 88 | 1019.7 |
| 20260506112742 | 53 | 338 | 0.0 | 0.0 | 0.00 | 0.00 | 0.00 | 88 | 1019.7 |
| 20260506112240 | 53 | 339 | 0.0 | 0.0 | 0.00 | 0.00 | 0.00 | 88 | 1019.3 |
| 20260506111737 | 53 | 338 | 0.0 | 0.0 | 0.00 | 0.00 | 0.00 | 88 | 1019.7 |
| 20260506111235 | 53 | 344 | 0.0 | 0.0 | 0.00 | 0.00 | 0.00 | 88 | 1019.7 |
| 20260506110732 | 53 | 342 | 0.0 | 1.0 | 0.00 | 0.00 | 0.00 | 88 | 1019.7 |
| 20260506110230 | 53 | 345 | 0.0 | 0.0 | 0.00 | 0.00 | 0.00 | 88 | 1019.3 |
| 20260506105726 | 53 | 338 | 0.0 | 0.0 | 0.00 | 0.00 | 0.00 | 88 | 1019.7 |
| 20260506105223 | 53 | 338 | 0.0 | 0.0 | 0.00 | 0.00 | 0.00 | 88 | 1019.7 |
| 20260506104721 | 54 | 333 | 0.0 | 0.0 | 0.00 | 0.00 | 0.00 | 88 | 1019.7 |
| 20260506104218 | 54 | 339 | 0.0 | 0.0 | 0.00 | 0.00 | 0.00 | 88 | 1019.7 |
| 20260506103715 | 54 | 337 | 0.0 | 0.0 | 0.00 | 0.00 | 0.00 | 88 | 1019.7 |
| 20260506103212 | 54 | 337 | 0.0 | 0.0 | 0.00 | 0.00 | 0.00 | 88 | 1019.7 |
| 20260506102710 | 54 | 353 | 0.0 | 0.0 | 0.00 | 0.00 | 0.00 | 88 | 1019.3 |
| 20260506102208 | 54 | 341 | 0.0 | 0.0 | 0.00 | 0.00 | 0.00 | 88 | 1019.7 |
| 20260506101704 | 54 | 340 | 0.0 | 1.0 | 0.00 | 0.00 | 0.00 | 88 | 1019.7 |
| 20260506101201 | 54 | 335 | 0.0 | 0.0 | 0.00 | 0.00 | 0.00 | 88 | 1019.7 |
| 20260506100659 | 54 | 338 | 0.0 | 0.0 | 0.00 | 0.00 | 0.00 | 88 | 1020.0 |
| 20260506100157 | 54 | 338 | 0.0 | 0.0 | 0.00 | 0.00 | 0.00 | 88 | 1020.0 |
| 20260506095655 | 54 | 337 | 0.0 | 0.0 | 0.00 | 0.00 | 0.00 | 88 | 1019.7 |
| 20260506095151 | 54 | 327 | 0.0 | 0.0 | 0.00 | 0.00 | 0.00 | 87 | 1019.7 |
| 20260506094649 | 54 | 337 | 0.0 | 0.0 | 0.00 | 0.00 | 0.00 | 87 | 1019.7 |
| 20260506094147 | 54 | 336 | 0.0 | 0.0 | 0.00 | 0.00 | 0.00 | 87 | 1019.7 |
| 20260506093645 | 54 | 340 | 0.0 | 0.0 | 0.00 | 0.00 | 0.00 | 87 | 1019.7 |
| 20260506093142 | 54 | 333 | 0.0 | 0.0 | 0.00 | 0.00 | 0.00 | 87 | 1019.7 |
| 20260506092640 | 54 | 341 | 0.0 | 0.0 | 0.00 | 0.00 | 0.00 | 87 | 1019.7 |
| 20260506092137 | 55 | 338 | 0.0 | 0.0 | 0.00 | 0.00 | 0.00 | 87 | 1019.7 |
| 20260506091635 | 55 | 335 | 0.0 | 0.0 | 0.00 | 0.00 | 0.00 | 86 | 1019.7 |
| 20260506091132 | 55 | 339 | 0.0 | 0.0 | 0.00 | 0.00 | 0.00 | 86 | 1019.7 |
| 20260506090630 | 55 | 317 | 0.0 | 0.0 | 0.00 | 0.00 | 0.00 | 86 | 1020.0 |
| 20260506090126 | 55 | 343 | 0.0 | 1.0 | 0.00 | 0.00 | 0.00 | 86 | 1020.0 |
| 20260506085623 | 55 | 337 | 0.0 | 0.0 | 0.00 | 0.00 | 0.00 | 86 | 1020.0 |
| 20260506085119 | 55 | 346 | 0.0 | 0.0 | 0.00 | 0.00 | 0.00 | 86 | 1020.4 |
| 20260506084616 | 55 | 339 | 0.0 | 0.0 | 0.00 | 0.00 | 0.00 | 86 | 1020.0 |
| 20260506084112 | 55 | 338 | 0.0 | 0.0 | 0.00 | 0.00 | 0.00 | 86 | 1020.4 |
| 20260506083610 | 55 | 333 | 0.0 | 0.0 | 0.00 | 0.00 | 0.00 | 86 | 1020.0 |
| 20260506083107 | 55 | 337 | 0.0 | 0.0 | 0.00 | 0.00 | 0.00 | 86 | 1020.0 |
| 20260506082603 | 55 | 339 | 0.0 | 0.0 | 0.00 | 0.00 | 0.00 | 86 | 1020.0 |
| 20260506082059 | 55 | 339 | 0.0 | 0.0 | 0.00 | 0.00 | 0.00 | 86 | 1020.4 |
| 20260506081558 | 55 | 343 | 0.0 | 0.0 | 0.00 | 0.00 | 0.00 | 86 | 1020.4 |
| 20260506081055 | 55 | 336 | 0.0 | 0.0 | 0.00 | 0.00 | 0.00 | 86 | 1020.0 |
| 20260506080552 | 55 | 332 | 0.0 | 0.0 | 0.00 | 0.00 | 0.00 | 86 | 1020.4 |
| 20260506073033 | 55 | 336 | 0.0 | 0.0 | 0.00 | 0.00 | 0.00 | 85 | 1020.0 |
| 20260506072530 | 55 | 336 | 0.0 | 0.0 | 0.00 | 0.00 | 0.00 | 85 | 1020.4 |
| 20260506072028 | 55 | 332 | 0.0 | 0.0 | 0.00 | 0.00 | 0.00 | 85 | 1020.0 |
| 20260506071525 | 56 | 334 | 0.0 | 0.0 | 0.00 | 0.00 | 0.00 | 85 | 1020.4 |
| 20260506071022 | 56 | 336 | 0.0 | 0.0 | 0.00 | 0.00 | 0.00 | 85 | 1020.0 |
| 20260506070520 | 56 | 334 | 0.0 | 0.0 | 0.00 | 0.00 | 0.00 | 85 | 1020.0 |
| 20260506062457 | 57 | 332 | 0.0 | 0.0 | 0.00 | 0.00 | 0.00 | 85 | 1019.7 |
| 20260506061953 | 57 | 340 | 0.0 | 0.0 | 0.00 | 0.00 | 0.00 | 85 | 1019.7 |
| 20260506061449 | 57 | 339 | 0.0 | 0.0 | 0.00 | 0.00 | 0.00 | 85 | 1019.3 |
| 20260506060947 | 57 | 338 | 0.0 | 0.0 | 0.00 | 0.00 | 0.00 | 84 | 1019.3 |
| 20260506060446 | 57 | 339 | 0.0 | 0.0 | 0.00 | 0.00 | 0.00 | 84 | 1019.7 |
| 20260506050914 | 58 | 341 | 0.0 | 0.0 | 0.00 | 0.00 | 0.00 | 83 | 1019.3 |
| 20260506050412 | 58 | 343 | 0.0 | 0.0 | 0.00 | 0.00 | 0.00 | 83 | 1019.3 |
| 20260506044902 | 58 | 336 | 0.0 | 0.0 | 0.00 | 0.00 | 0.00 | 81 | 1018.7 |
| 20260506044400 | 58 | 337 | 0.0 | 0.0 | 0.00 | 0.00 | 0.00 | 81 | 1018.7 |
| 20260506043857 | 58 | 346 | 0.0 | 0.0 | 0.00 | 0.00 | 0.00 | 82 | 1018.7 |
| 20260506043354 | 58 | 335 | 0.0 | 0.0 | 0.00 | 0.00 | 0.00 | 82 | 1018.7 |
| 20260506042852 | 58 | 339 | 0.0 | 0.0 | 0.00 | 0.00 | 0.00 | 82 | 1018.3 |
| 20260506042351 | 58 | 339 | 0.0 | 0.0 | 0.00 | 0.00 | 0.00 | 82 | 1018.7 |
| 20260506041849 | 59 | 342 | 0.0 | 0.0 | 0.00 | 0.00 | 0.00 | 82 | 1018.7 |
| 20260506041346 | 59 | 337 | 0.0 | 0.0 | 0.00 | 0.00 | 0.00 | 81 | 1018.7 |
| 20260506040843 | 59 | 338 | 0.0 | 0.0 | 0.00 | 0.00 | 0.00 | 81 | 1018.7 |
| 20260506040341 | 59 | 346 | 0.0 | 0.0 | 0.00 | 0.00 | 0.00 | 80 | 1018.3 |
| 20260506035836 | 59 | 337 | 0.0 | 0.0 | 0.00 | 0.00 | 0.00 | 80 | 1018.3 |
| 20260506035334 | 59 | 336 | 0.0 | 0.0 | 0.00 | 0.00 | 0.00 | 80 | 1018.3 |
| 20260506034831 | 60 | 337 | 0.0 | 0.0 | 0.00 | 0.00 | 0.00 | 79 | 1018.7 |
| 20260506034328 | 60 | 308 | 0.0 | 0.0 | 0.00 | 0.00 | 0.00 | 79 | 1018.3 |
| 20260506033825 | 60 | 339 | 0.0 | 0.0 | 0.00 | 0.00 | 0.00 | 79 | 1018.0 |
| 20260506033322 | 60 | 342 | 0.0 | 0.0 | 0.00 | 0.00 | 0.00 | 79 | 1018.0 |
| 20260506032819 | 60 | 342 | 0.0 | 0.0 | 0.00 | 0.00 | 0.00 | 78 | 1018.0 |
| 20260506032316 | 60 | 295 | 0.0 | 1.0 | 0.00 | 0.00 | 0.00 | 78 | 1018.0 |
| 20260506031813 | 60 | 340 | 1.0 | 1.0 | 0.00 | 0.00 | 0.00 | 78 | 1017.6 |
| 20260506031310 | 60 | 300 | 0.0 | 1.0 | 0.00 | 0.00 | 0.00 | 78 | 1017.6 |
| 20260506030808 | 60 | 338 | 0.0 | 1.0 | 0.00 | 0.00 | 0.00 | 78 | 1017.3 |
| 20260506030306 | 60 | 226 | 2.0 | 2.0 | 0.00 | 0.00 | 0.00 | 77 | 1017.6 |
| 20260506025802 | 60 | 270 | 1.0 | 1.0 | 0.00 | 0.00 | 0.00 | 78 | 1017.6 |
| 20260506025258 | 60 | 297 | 0.0 | 1.0 | 0.00 | 0.00 | 0.00 | 77 | 1017.6 |
| 20260506024756 | 60 | 339 | 0.0 | 1.0 | 0.00 | 0.00 | 0.00 | 77 | 1017.3 |
| 20260506024252 | 60 | 266 | 2.0 | 2.0 | 0.00 | 0.00 | 0.00 | 77 | 1017.3 |
| 20260506023748 | 60 | 337 | 0.0 | 2.0 | 0.00 | 0.00 | 0.00 | 77 | 1017.3 |
| 20260506023246 | 61 | 303 | 2.0 | 3.0 | 0.00 | 0.00 | 0.00 | 76 | 1017.0 |
| 20260506022742 | 61 | 306 | 1.0 | 2.0 | 0.00 | 0.00 | 0.00 | 76 | 1017.0 |
| 20260506022240 | 61 | 318 | 0.0 | 2.0 | 0.00 | 0.00 | 0.00 | 75 | 1017.0 |
| 20260506021738 | 61 | 339 | 0.0 | 1.0 | 0.00 | 0.00 | 0.00 | 75 | 1017.3 |
| 20260506021235 | 61 | 325 | 2.0 | 2.0 | 0.00 | 0.00 | 0.00 | 74 | 1017.0 |
| 20260506020731 | 61 | 315 | 0.0 | 2.0 | 0.00 | 0.00 | 0.00 | 74 | 1017.0 |
| 20260506020229 | 61 | 327 | 1.0 | 3.0 | 0.00 | 0.00 | 0.00 | 74 | 1017.0 |
| 20260506015727 | 62 | 246 | 2.0 | 4.0 | 0.00 | 0.00 | 0.00 | 73 | 1017.0 |
| 20260506015224 | 62 | 268 | 2.0 | 3.0 | 0.00 | 0.00 | 0.00 | 71 | 1017.0 |
| 20260506014721 | 63 | 326 | 0.0 | 1.0 | 0.00 | 0.00 | 0.00 | 69 | 1017.0 |
| 20260506014217 | 63 | 333 | 0.0 | 1.0 | 0.00 | 0.00 | 0.00 | 70 | 1017.0 |
| 20260506013715 | 63 | 313 | 4.0 | 6.0 | 0.00 | 0.00 | 0.00 | 69 | 1016.6 |
| 20260506013212 | 63 | 317 | 1.0 | 2.0 | 0.00 | 0.00 | 0.00 | 70 | 1017.0 |
| 20260506012708 | 62 | 333 | 0.0 | 1.0 | 0.00 | 0.00 | 0.00 | 70 | 1017.0 |
| 20260506012205 | 62 | 298 | 2.0 | 3.0 | 0.00 | 0.00 | 0.00 | 70 | 1016.6 |
| 20260506011702 | 62 | 309 | 2.0 | 3.0 | 0.00 | 0.00 | 0.00 | 69 | 1017.0 |
| 20260506011158 | 62 | 262 | 2.0 | 2.0 | 0.00 | 0.00 | 0.00 | 70 | 1017.0 |
| 20260506010657 | 62 | 238 | 2.0 | 4.0 | 0.00 | 0.00 | 0.00 | 70 | 1017.3 |
| 20260506010154 | 63 | 181 | 2.0 | 2.0 | 0.00 | 0.00 | 0.00 | 69 | 1017.0 |
| 20260506005651 | 63 | 178 | 2.0 | 2.0 | 0.00 | 0.00 | 0.00 | 69 | 1016.6 |
| 20260506005147 | 63 | 311 | 1.0 | 2.0 | 0.00 | 0.00 | 0.00 | 69 | 1017.0 |
| 20260506004643 | 63 | 335 | 1.0 | 4.0 | 0.00 | 0.00 | 0.00 | 67 | 1017.0 |
| 20260506004141 | 63 | 256 | 2.0 | 2.0 | 0.00 | 0.00 | 0.00 | 66 | 1017.0 |
| 20260506003637 | 63 | 258 | 0.0 | 2.0 | 0.00 | 0.00 | 0.00 | 66 | 1017.0 |
| 20260506003133 | 63 | 335 | 0.0 | 2.0 | 0.00 | 0.00 | 0.00 | 66 | 1016.6 |
| 20260506002630 | 63 | 209 | 4.0 | 6.0 | 0.00 | 0.00 | 0.00 | 65 | 1016.6 |
| 20260506002126 | 63 | 303 | 3.0 | 6.0 | 0.00 | 0.00 | 0.00 | 66 | 1016.6 |
| 20260506001621 | 63 | 248 | 2.0 | 4.0 | 0.00 | 0.00 | 0.00 | 66 | 1016.6 |
| 20260506001119 | 63 | 214 | 2.0 | 4.0 | 0.00 | 0.00 | 0.00 | 65 | 1017.0 |
| 20260506000616 | 63 | 279 | 4.0 | 6.0 | 0.00 | 0.00 | 0.00 | 65 | 1016.6 |
| 20260506000113 | 64 | 216 | 3.0 | 4.0 | 0.00 | 0.00 | 0.00 | 63 | 1016.6 |
| 20260505235612 | 64 | 189 | 2.0 | 7.0 | 0.00 | 0.00 | 0.00 | 63 | 1016.6 |
| 20260505235108 | 64 | 306 | 4.0 | 6.0 | 0.00 | 0.00 | 0.00 | 63 | 1017.0 |
| 20260505234605 | 64 | 209 | 4.0 | 4.0 | 0.00 | 0.00 | 0.00 | 63 | 1016.6 |
| 20260505234102 | 64 | 129 | 2.0 | 6.0 | 0.00 | 0.00 | 0.00 | 65 | 1016.6 |
| 20260505233600 | 63 | 286 | 2.0 | 7.0 | 0.00 | 0.00 | 0.00 | 66 | 1017.0 |
| 20260505233057 | 63 | 228 | 4.0 | 7.0 | 0.00 | 0.00 | 0.00 | 67 | 1017.0 |
| 20260505232555 | 63 | 278 | 2.0 | 6.0 | 0.00 | 0.00 | 0.00 | 67 | 1017.0 |
| 20260505232052 | 62 | 274 | 3.0 | 4.0 | 0.00 | 0.00 | 0.00 | 68 | 1016.6 |
| 20260505231548 | 62 | 267 | 5.0 | 6.0 | 0.00 | 0.00 | 0.00 | 68 | 1017.0 |
| 20260505231047 | 62 | 231 | 2.0 | 6.0 | 0.00 | 0.00 | 0.00 | 69 | 1016.6 |
| 20260505230544 | 62 | 275 | 4.0 | 6.0 | 0.00 | 0.00 | 0.00 | 68 | 1017.0 |
| 20260505230041 | 62 | 298 | 1.0 | 3.0 | 0.00 | 0.00 | 0.00 | 69 | 1017.0 |
| 20260505225537 | 62 | 311 | 4.0 | 6.0 | 0.00 | 0.00 | 0.00 | 68 | 1017.0 |
| 20260505225033 | 63 | 110 | 3.0 | 7.0 | 0.00 | 0.00 | 0.00 | 67 | 1017.0 |
| 20260505224531 | 64 | 255 | 5.0 | 7.0 | 0.00 | 0.00 | 0.00 | 66 | 1017.3 |
| 20260505224028 | 64 | 278 | 2.0 | 3.0 | 0.00 | 0.00 | 0.00 | 66 | 1017.0 |
| 20260505223525 | 65 | 193 | 4.0 | 6.0 | 0.00 | 0.00 | 0.00 | 65 | 1017.0 |
| 20260505223021 | 64 | 300 | 1.0 | 6.0 | 0.00 | 0.00 | 0.00 | 64 | 1017.0 |
| 20260505222518 | 64 | 312 | 2.0 | 8.0 | 0.00 | 0.00 | 0.00 | 65 | 1017.3 |
| 20260505222013 | 65 | 237 | 2.0 | 7.0 | 0.00 | 0.00 | 0.00 | 64 | 1017.3 |
| 20260505221511 | 64 | 192 | 4.0 | 7.0 | 0.00 | 0.00 | 0.00 | 65 | 1017.3 |
| 20260505221008 | 65 | 342 | 3.0 | 4.0 | 0.00 | 0.00 | 0.00 | 63 | 1017.3 |
| 20260505220504 | 63 | 258 | 8.0 | 9.0 | 0.00 | 0.00 | 0.00 | 65 | 1017.3 |
| 20260505220002 | 64 | 242 | 6.0 | 10.0 | 0.00 | 0.00 | 0.00 | 64 | 1017.3 |
| 20260505215500 | 64 | 239 | 6.0 | 11.0 | 0.00 | 0.00 | 0.00 | 64 | 1017.3 |
| 20260505214958 | 65 | 277 | 4.0 | 9.0 | 0.00 | 0.00 | 0.00 | 63 | 1017.6 |
| 20260505214456 | 65 | 216 | 5.0 | 7.0 | 0.00 | 0.00 | 0.00 | 63 | 1017.3 |
| 20260505213952 | 65 | 179 | 3.0 | 8.0 | 0.00 | 0.00 | 0.00 | 64 | 1017.3 |
| 20260505213450 | 64 | 289 | 0.0 | 8.0 | 0.00 | 0.00 | 0.00 | 65 | 1017.3 |
| 20260505212946 | 65 | 253 | 7.0 | 13.0 | 0.00 | 0.00 | 0.00 | 65 | 1017.6 |
| 20260505212443 | 65 | 330 | 1.0 | 8.0 | 0.00 | 0.00 | 0.00 | 66 | 1017.6 |
| 20260505211939 | 65 | 209 | 5.0 | 8.0 | 0.00 | 0.00 | 0.00 | 65 | 1017.3 |
| 20260505211437 | 65 | 273 | 1.0 | 8.0 | 0.00 | 0.00 | 0.00 | 64 | 1017.6 |
| 20260505210933 | 65 | 354 | 2.0 | 3.0 | 0.00 | 0.00 | 0.00 | 62 | 1017.6 |
| 20260505210431 | 65 | 247 | 4.0 | 9.0 | 0.00 | 0.00 | 0.00 | 59 | 1017.6 |
| 20260505205927 | 65 | 260 | 6.0 | 9.0 | 0.00 | 0.00 | 0.00 | 60 | 1017.3 |
| 20260505205426 | 66 | 198 | 3.0 | 8.0 | 0.00 | 0.00 | 0.00 | 61 | 1017.6 |
| 20260505204922 | 65 | 237 | 5.0 | 9.0 | 0.00 | 0.00 | 0.00 | 59 | 1017.6 |
| 20260505204420 | 66 | 252 | 5.0 | 10.0 | 0.00 | 0.00 | 0.00 | 59 | 1017.6 |
| 20260505203917 | 66 | 235 | 4.0 | 8.0 | 0.00 | 0.00 | 0.00 | 64 | 1017.3 |
| 20260505203413 | 65 | 170 | 6.0 | 10.0 | 0.00 | 0.00 | 0.00 | 61 | 1017.3 |
| 20260505202910 | 65 | 189 | 6.0 | 10.0 | 0.00 | 0.00 | 0.00 | 62 | 1017.3 |